Location: Albany
(35.0170°S, 117.8920°E)
Time: 01:41:39
(UTC+08:00)

Explorer 7 - Pass Details

Date: 27 January 2021
Orbit: 484 x 677 km, 50.3° (Epoch: 01 March)

Event Time Altitude Azimuth Distance (km) Brightness Sun altitude
Rises 18:22:28 0° 235° (SW) 3,014 12.1 10.2°
Reaches altitude 10° 18:26:24 10° 204° (SSW) 2,065 10.4 9.4°
Maximum altitude 18:28:16 12° 181° (S) 1,908 9.8 9.0°
Drops below altitude 10° 18:30:06 10° 157° (SSE) 2,022 9.7 8.7°
Sets 18:33:51 0° 126° (SE) 2,876 10.1 7.9°
